This is the latest recevied weather packets stored in our database for station/object MeshWX-2. If no packets are shown the sender has not sent any weather packets the latest 10 day(s).
| Time | Temp. | Humidity | Pressure | Rain* | Wind** | Luminosity | Snow |
|---|---|---|---|---|---|---|---|
| 1787897174 | 20.56° C | 50% | 885.2 hPa | - | - | - | - |
| 1787897087 | 20.56° C | 50% | 885.2 hPa | - | - | - | - |
| 1787895134 | 18.33° C | 50% | 885 hPa | - | - | - | - |
| 1787895047 | 18.33° C | 50% | 885 hPa | - | - | - | - |
| 1787893094 | 17.22° C | 50% | 884.8 hPa | - | - | - | - |
| 1787893007 | 17.22° C | 50% | 884.8 hPa | - | - | - | - |
| 1787891113 | 16.67° C | 49% | 884.6 hPa | - | - | - | - |
| 1787891026 | 16.67° C | 49% | 884.6 hPa | - | - | - | - |
| 1787889133 | 15.56° C | 48% | 884.4 hPa | - | - | - | - |
| 1787889046 | 15.56° C | 48% | 884.4 hPa | - | - | - | - |
| 1787887093 | 15° C | 49% | 884.4 hPa | - | - | - | - |
| 1787887005 | 15° C | 49% | 884.4 hPa | - | - | - | - |
| 1787885172 | 16.11° C | 49% | 884.5 hPa | - | - | - | - |
| 1787885084 | 16.11° C | 49% | 884.5 hPa | - | - | - | - |
| 1787883251 | 17.78° C | 48% | 884.6 hPa | - | - | - | - |
| 1787883164 | 17.78° C | 48% | 884.6 hPa | - | - | - | - |
| 1787881331 | 18.33° C | 48% | 884.5 hPa | - | - | - | - |
| 1787881242 | 18.33° C | 48% | 884.5 hPa | - | - | - | - |
| 1787879411 | 18.33° C | 48% | 884.5 hPa | - | - | - | - |
| 1787879322 | 18.33° C | 48% | 884.5 hPa | - | - | - | - |
| 1787877491 | 18.33° C | 48% | 884.7 hPa | - | - | - | - |
| 1787877401 | 18.33° C | 48% | 884.7 hPa | - | - | - | - |
| 1787875510 | 18.33° C | 48% | 884.7 hPa | - | - | - | - |
| 1787875420 | 18.33° C | 48% | 884.7 hPa | - | - | - | - |
| 1787873590 | 18.33° C | 48% | 884.8 hPa | - | - | - | - |
* Rain since midnight (hover to see other rain measurements)
** Current wind speed in m/s (hover to see current wind gust speed)